Location: Pella
(41.4080°N, 92.9160°W)
Time: 12:35:52
(UTC-06:00)

ASTRO E2 - Visible Passes

Search period start: 20 January 2018 00:00
Search period end: 30 January 2018 00:00
Orbit: 514 x 520 km, 31.4° (Epoch: 20 January)

Date Brightness Start Highest point End Pass type
(mag) Time Alt. Az. Time Alt. Az. Time Alt. Az.
20 Jan 5.1 17:59:30 10° SSW 18:01:38 14° SSE 18:03:46 10° SE visible
20 Jan 5.0 19:38:34 10° SW 19:40:17 17° SSW 19:40:17 17° SSW visible
21 Jan 5.1 17:41:47 10° SSW 17:44:07 15° SSE 17:46:26 10° SE visible
21 Jan 4.7 19:21:03 10° SW 19:23:52 19° S 19:23:52 19° S visible
22 Jan 4.7 19:03:34 10° SW 19:06:26 19° S 19:07:29 17° SSE visible
23 Jan 4.8 18:46:05 10° SW 18:48:55 19° S 18:51:07 13° SSE visible
24 Jan 5.0 18:28:38 10° SW 18:31:23 18° S 18:34:08 10° SE visible
25 Jan 5.1 18:11:11 10° SW 18:13:51 17° S 18:16:31 10° SE visible
26 Jan 5.2 17:53:46 10° SW 17:56:20 16° S 17:58:53 10° SSE visible
